Погода в Новокавказском

Россия / Ставропольский край     44°35′16″N   43°07′26″E
темп.,
°C
ветер,
м/с
пор.,
м/с
влажн.,
%
обл.,
%
осадки,
мм/ч
давл.,
гПа
погр.,
м
17 июня, чт
чт1700:00+18в410790 0.0 1005218
03:00+16всв22918 0.0 100526
06:00+18зсз23922 0.0 1006132
09:00+20зсз7118730 0.1 1008674
12:00+24сз9117282 0.1 10091261
15:00+22сз91474100 0.2 10111007
18:00+20зсз9158248 0.2 1012572
21:00+18зсз7148294 0.6 1015515
18 июня, пт
пт1800:00+17з6128590 0.0 1016466
03:00+16з5108463 0.0 1017340
06:00+16зюз49870 0.0 1017296
09:00+21зсз56690 0.0 1016652
12:00+24сз33590 0.0 10161043
15:00+25ссз22560 0.0 10151260
18:00+25в12620 0.0 10161094
21:00+20вюв22740 0.0 101711
19 июня, сб
сб1900:00+18в22790 0.0 101612
03:00+17в34840 0.0 101653
06:00+19в378831 0.0 1016218
09:00+23в81079100 0.0 1015841
12:00+26в91263100 0.0 10141451
15:00+27в101558100 0.0 10121731
18:00+23в101863100 0.0 1012759
21:00+21в818635 0.0 1014570
20 июня, вс
вс2000:00+18в616640 0.0 1013465
03:00+15в4136573 0.0 1013304
06:00+16в41174100 0.0 1013298
09:00+22в58732 0.0 1012618
12:00+27вюв69564 0.0 10111083
15:00+30вюв59480 0.0 10091624
18:00+26в613615 0.0 1010490
21:00+21в615520 0.0 1012416
21 июня, пн
пн2100:00+18в410590 0.0 1012200
03:00+16в38670 0.0 1012144
06:00+18в27790 0.0 1012200
09:00+22в46640 0.0 1011472
12:00+26в79560 0.0 1010827
15:00+30юв6125066 0.0 10081448
18:00+25в81750100 0.0 1009426
21:00+20в345157 0.1 101242